(458732) 2011 MD5
ephemeris date magn radius delta ra dec elong phase
Today15 Oct 202524.63.982 AU4.949 AU14h10m-06°43'12.7°3.2°
(458732) 2011 MD5 - 2025-10-15
astro.vanbuitenen.nl


 
-1 year
-1 month
-1 day
Now
+1 day
+1 month
+1 year

The interactive orbit chart above shows the body's path through the solar system and its position at the given date. Green and blue lines are shown perpendicular to the ecliptic plane: Green if the path is above the ecliptic plane, blue if it is below. (Left-click and drag to rotate the view; Right-click and drag to move the view; Use scroll wheel to zoom in our out.)

The orbital elements of 2011 MD5 are:

            e (Eccentricity)                : 0.6026556
            a (Semimajor axis)              : 2.4851087
            i (Inclination)                 : 10.55139
            Ω (Longitude of ascending node) : 170.32492
            ω (Argument of perihelion)      : 224.90278
            M (Mean anomaly)                : 141.64254
            Epoch                           : 2025 May 05

            L (Longitude of perihelion)     : 214.73919
            B (Latitude of perihelion)      : -7.42704
            P (Orbital period in years)     : 3.92            
        

The light curve chart below shows the estimated development of the minor planet's magnitude.


The all-sky chart below shows the path of the minor planet over the same period as the light curve. The current position is marked yellow.





The following chart shows the path of the minor planet in the next few days. The field of view is optimized for (~10x50) binoculars and finderscopes. A more printer-friendly version of the same chart can be found below.




Ephemerides:
Date       Time       RA (2000)    DEC (2000)    delta   radius  elong  phase   PA    magn
2025-10-15 00:00 UT   14 10 30.9   -06 43 43     4.949    3.982   12.7    3.2    82   24.6 
2025-10-15 11:04 UT   14 10 58.2   -06 45 60     4.950    3.982   12.4    3.1    81   24.6 
2025-10-16 00:00 UT   14 11 30.2   -06 48 40     4.951    3.982   12.1    3.0    80   24.6 
2025-10-17 00:00 UT   14 12 29.6   -06 53 36     4.954    3.982   11.5    2.9    78   24.6 
2025-10-18 00:00 UT   14 13 29.2   -06 58 31     4.956    3.982   10.9    2.7    76   24.6 
2025-10-19 00:00 UT   14 14 28.9   -07 03 25     4.958    3.982   10.3    2.6    73   24.6 
2025-10-20 00:00 UT   14 15 28.7   -07 08 18     4.960    3.981    9.7    2.4    71   24.6 
2025-10-21 00:00 UT   14 16 28.7   -07 13 09     4.961    3.981    9.1    2.3    68   24.5 
2025-10-22 00:00 UT   14 17 28.7   -07 17 59     4.962    3.981    8.6    2.1    64   24.5 
2025-10-23 00:00 UT   14 18 28.8   -07 22 47     4.963    3.981    8.1    2.0    61   24.5 
2025-10-24 00:00 UT   14 19 29.1   -07 27 34     4.964    3.981    7.7    1.9    56   24.5 
2025-10-25 00:00 UT   14 20 29.4   -07 32 19     4.965    3.980    7.2    1.8    52   24.5 
2025-10-26 00:00 UT   14 21 29.9   -07 37 03     4.965    3.980    6.9    1.7    46   24.5 
2025-10-27 00:00 UT   14 22 30.4   -07 41 45     4.966    3.980    6.6    1.6    41   24.5 
2025-10-28 00:00 UT   14 23 31.0   -07 46 26     4.966    3.980    6.4    1.6    34   24.5 
2025-10-29 00:00 UT   14 24 31.6   -07 51 04     4.966    3.979    6.2    1.5    28   24.5 
2025-10-30 00:00 UT   14 25 32.3   -07 55 42     4.965    3.979    6.2    1.5    21   24.5 
2025-10-31 00:00 UT   14 26 33.1   -08 00 17     4.964    3.979    6.2    1.5    14   24.5 
2025-11-01 00:00 UT   14 27 34.0   -08 04 51     4.964    3.979    6.3    1.6     7   24.5 
2025-11-02 00:00 UT   14 28 34.9   -08 09 22     4.963    3.978    6.5    1.6     1   24.5 
2025-11-03 00:00 UT   14 29 35.8   -08 13 52     4.961    3.978    6.8    1.7   355   24.5 
2025-11-04 00:00 UT   14 30 36.8   -08 18 20     4.960    3.978    7.1    1.8   349   24.5 
2025-11-05 00:00 UT   14 31 37.9   -08 22 47     4.958    3.977    7.5    1.9   344   24.5 
2025-11-06 00:00 UT   14 32 38.9   -08 27 11     4.956    3.977    7.9    2.0   340   24.5 
2025-11-07 00:00 UT   14 33 40.0   -08 31 33     4.954    3.976    8.4    2.1   336   24.5 
2025-11-08 00:00 UT   14 34 41.2   -08 35 54     4.952    3.976    8.9    2.2   332   24.5 
2025-11-09 00:00 UT   14 35 42.3   -08 40 12     4.949    3.976    9.5    2.4   329   24.5 
2025-11-10 00:00 UT   14 36 43.5   -08 44 28     4.947    3.975   10.1    2.5   326   24.6 
2025-11-11 00:00 UT   14 37 44.7   -08 48 42     4.944    3.975   10.7    2.6   324   24.6 
2025-11-12 00:00 UT   14 38 45.9   -08 52 54     4.941    3.974   11.3    2.8   321   24.6 
2025-11-13 00:00 UT   14 39 47.1   -08 57 04     4.937    3.974   11.9    2.9   319   24.6 
2025-11-14 00:00 UT   14 40 48.3   -09 01 12     4.934    3.974   12.5    3.1   318   24.6 


    Terminology:
            
    delta:  distance between minor planet and earth in AU
    radius: distance between minor planet and sun in AU
    magn:   magnitude (brightness) estimate    
    ra:     right ascension in hours (24h = 360deg)
    dec:    declination in degrees
    elong:  elongation in degrees (angle sun-earth-minor planet)    
    phase:  phase angle in degrees (angle sun-minor planet-earth)        
    AU:     Astronomical Unit (mean distance between earth and sun: 149597870.7 km
    

Orbital elements provided by the MPC (Minor Planet Center).
Calculations by a modified version of AAPlus, a C# implementation of the AA+ project by PJ Naughter from the algorithms presented in the book "Astronomical Algorithms" by Jean Meeus.
NGC2000 dso catalog and star labels from VizieR as provided by the Strasbourg astronomical Data Center.
Tycho2 catalog from the ESO archive.